Weather Roundup
Issued by NWS Springfield, MO

Home | Current Version | Previous Version | Text Only | Print | Product List | Glossary On
Versions: 1 2 3 4 5 6 7 8 9 10 11 12 13 14 15 16 17 18 19 20 21 22 23 24 25 26 27 28 29 30 31 32 33 34 35 36 37 38 39 40 41 42 43 44 45 46 47 48 49 50
000
NZUS99 KSGF 030807
HRRSGF

HOURLY WEATHER
NATIONAL WEATHER SERVICE SPRINGFIELD MO
300 AM CDT WED JUN 03 2015

......SGF CWA......

CITY           SKY/WX    TMP DP  RH WIND       PRES   REMARKS
SPRINGFIELD    PTCLDY    62  59  90 S13       30.00R
JOPLIN         CLEAR     67  64  90 SE7       29.96S
WEST PLAINS    PTCLDY    55  53  93 CALM      30.05S
ROLLA          PTCLDY    55  54  96 S7        30.01S
OSAGE BEACH    PTCLDY    57  54  88 SE7       30.01S
BRANSON        CLOUDY    63  59  88 CALM      30.03S

......SURROUNDING SGF CWA......

CITY           SKY/WX    TMP DP  RH WIND       PRES   REMARKS
CHANUTE        CLEAR     68  67  96 SE7       29.93S
PARSONS        CLEAR     70  67  90 SE5       29.94S
COFFEYVILLE    CLEAR     68  66  93 SE7       29.92F
EMPORIA        CLEAR     69  66  90 S13       29.90S
GROVE OK       PTCLDY    68  68 100 SE3       29.96F
ROGERS AR      CLOUDY    66  64  93 SE6       30.01S
SILOAM SPRINGS PTCLDY    64  57  77 SE8       29.99S
HARRISON AR    CLOUDY    62  61  96 SE10      30.02S
NEAR YELLVILLE CLOUDY    61  57  88 E5        30.02S

......KANSAS AND MISSOURI......

CITY           SKY/WX    TMP DP  RH WIND       PRES   REMARKS
KANSAS CTY INT MOCLDY    65  59  81 SE12      29.94F
DOWNTOWN KC    PTCLDY    67  58  72 SE7       29.93F
COLUMBIA       PTCLDY    57  55  93 SE7       30.02S
SEDALIA        CLOUDY    62  57  83 SE6       30.00S
ST JOSEPH      PTCLDY    64  59  83 SE8       29.93F
ST LOUIS       PTCLDY    61  54  77 CALM      30.03F
SPIRIT OF STL  CLEAR     56  55  97 S3        30.02F
KIRKSVILLE     PTCLDY    57  56  96 S6        30.01F
WICHITA        PTCLDY    73  66  78 S14       29.87S
TOPEKA         MOCLDY    68  64  87 SE9       29.91F
OLATHE         MOCLDY    64  59  83 SE9       29.94F

......TENNESSEE......

CITY           SKY/WX    TMP DP  RH WIND       PRES   REMARKS
MEMPHIS        CLEAR     63  59  87 CALM      30.00F
NASHVILLE      CLOUDY    63  57  82 NE5       30.02F

......ARKANSAS.......

CITY           SKY/WX    TMP DP  RH WIND       PRES   REMARKS
FAYETTEVILLE   CLEAR     62  61  96 CALM      29.99F
FT SMITH       CLOUDY    70  66  87 E6        29.96F
LITTLE ROCK    MOCLDY    65  59  81 NE5       30.01F

......OKLAHOMA.......

CITY           SKY/WX    TMP DP  RH WIND       PRES   REMARKS
TULSA          PTCLDY    73  66  78 S10       29.90F
PONCA CITY     CLEAR     73  65  75 S12G22    29.88F
MCALESTER      CLEAR     71  64  78 SE5       29.94F
OKLAHOMA CITY  PTCLDY    70  64  81 S12       29.90S

......IOWA............

CITY           SKY/WX    TMP DP  RH WIND       PRES   REMARKS
DES MOINES     MOCLDY    61  56  83 S12       29.95F
QUAD CITIES    PTCLDY    57  50  77 CALM      30.02S

......ILLINOIS........

CITY           SKY/WX    TMP DP  RH WIND       PRES   REMARKS
QUINCY         CLEAR     59  56  89 S6        30.02S
CHICAGO        MOCLDY    51  44  77 CALM      30.07F



USA.gov is the U.S. government's official web portal to all federal, state and local government web resources and services.